User: anonymous   Login
Location: Unspecified
(0.0000°N, 0.0000°E)
Time: 09:49:03
(UTC+00:00)
Language:

TIGRISAT - Orbit

View from above orbital plane
View from above orbital plane
View from above satellite
View from above satellite

Ground track
Ground track

The orbit data is extracted from the following two-line orbital elements,

1 40043U 14033AK  19018.20052020  .00000086  00000-0  20225-4 0  9991
2 40043  97.7788 252.2825 0058974 224.8108 134.8330 14.74217281246284
Epoch (UTC): 18 January 2019 04:48:44
Eccentricity: 0.0058974
inclination: 97.7788°
perigee height: 606 km
apogee height: 689 km
right ascension of ascending node: 252.2825°
argument of perigee: 224.8108°
revolutions per day: 14.74217281
mean anomaly at epoch: 134.8330°
orbit number at epoch: 24628

The dashed part of the orbit path shows where the satellite is in the earth's shadow,  

DLR